Powrót do katalogu

FENGYUN 1C DEB

AktywnyLEO
NORAD 35217·DEBRIS·🇨🇳 China

Wystrzelony May 10, 1999 z Taiyuan Satellite Launch Center

Loading…

Następne Przeloty (najbliższe 24 godziny)

TLE

Starzejące sięSource: Space-Track

Epoka: Sep 11, 2026, 15:35 UTC

1 35217U 99025DPZ 26254.64958499  .00001505  00000-0  15977-2 0  9998
2 35217 101.8819 231.6366 0300842  23.6180 337.8440 13.58546845649245

Śledź FENGYUN 1C DEB w czasie rzeczywistym z AllMySat

Download on the App Store